Regional Weather Roundup
Issued by NWS Raleigh/Durham, NC

Home | Current Version | Previous Version | Text Only | Print | Product List | Glossary On
Versions: 1 2 3 4 5 6 7 8 9 10 11 12 13 14 15 16 17 18 19 20 21 22 23 24 25 26 27 28 29 30 31 32 33 34 35 36 37 38 39 40 41 42 43 44 45 46 47 48 49 50
000
ASUS42 KRAH 211710
RWRRAH
NORTH CAROLINA WEATHER ROUNDUP
NATIONAL WEATHER SERVICE RALEIGH NC
100 PM EDT FRI JUL 21 2017

NOTE: "FAIR" INDICATES FEW OR NO CLOUDS BELOW 12,000 FEET WITH NO
SIGNIFICANT WEATHER AND/OR OBSTRUCTIONS TO VISIBILITY.

NCZ001-053-055-056-065-067-211800-
WESTERN NORTH CAROLINA

CITY           SKY/WX    TMP DP  RH WIND       PRES   REMARKS
ASHEVILLE      SUNNY     87  69  54 S6        30.15S
JEFFERSON      CLOUDY    80  67  64 SW5       30.20S
HICKORY        SUNNY     90  68  48 VRB6      30.07S
RUTHERFORDTON  SUNNY     89  67  48 W6        30.08F
MOUNT AIRY     SUNNY     93  73  53 W6        30.09S HX 101
BOONE          PTSUNNY   82  62  51 W7        30.21S
$$

NCZ021-022-025-041-071-084-088-211800-
CENTRAL NORTH CAROLINA

CITY           SKY/WX    TMP DP  RH WIND       PRES   REMARKS
CHARLOTTE      MOSUNNY   94  69  44 W5        30.05F HX  99
GREENSBORO     CLOUDY    93  67  42 VRB5      30.04F HX  96
WINSTON-SALEM  SUNNY     92  61  35 VRB3      30.06S
RALEIGH-DURHAM PTSUNNY   95  70  44 VRB5      30.01S HX 101
FORT BRAGG     MOSUNNY   93  73  52 W7        30.00F HX 101
FAYETTEVILLE   SUNNY     97  77  52 S9        30.01S HX 112
BURLINGTON     CLOUDY    93  72  50 VRB6      30.02F HX 101
LAURINBURG     SUNNY     92  78  63 SW8       30.03F HX 107
$$

NCZ011-015-027-028-043-044-047-080-103-211800-
NORTHEASTERN NORTH CAROLINA

CITY           SKY/WX    TMP DP  RH WIND       PRES   REMARKS
ROCKY MT-WILSO SUNNY     93  75  55 SW7       29.99F HX 104
GREENVILLE     SUNNY     91  75  59 SW6       30.00F HX 102
WASHINGTON     SUNNY     92  76  58 S7        29.99F HX 104
ELIZABETH CITY MOSUNNY   91  79  67 S9        29.97F HX 107
MANTEO         MOSUNNY   88  80  75 S8        30.00S HX 104
CAPE HATTERAS  MOSUNNY   85  77  77 SW7       30.02F HX  95
$$

NCZ078-087-090-091-093-098-101-211800-
SOUTHEASTERN NORTH CAROLINA

CITY           SKY/WX    TMP DP  RH WIND       PRES   REMARKS
LUMBERTON      SUNNY     91  77  63 S8        30.02  HX 104
GOLDSBORO      MOSUNNY   93  79  64 SW8       29.99S HX 110
KINSTON        SUNNY     95  73  49 SW10      30.00F HX 105
KENANSVILLE    MOSUNNY   93  73  52 SW8       30.01F HX 102
NEW BERN       SUNNY     93  76  57 W8        30.01F HX 105
CHERRY POINT   MOSUNNY   92  74  55 SW8       30.02F HX 101
BEAUFORT       SUNNY     86  80  82 SW13      30.02F HX 101
JACKSONVILLE   SUNNY     92  75  57 SW5       30.01F HX 103
WILMINGTON     SUNNY     91  72  53 W9        30.02F HX  98
$$




USA.gov is the U.S. government's official web portal to all federal, state and local government web resources and services.